Powrót do katalogu

GLOBALSTAR M094

AktywnyŁącznośćLEO
NORAD 39074·PAYLOAD·🇺🇸 United States

Wystrzelony Feb 6, 2013 z Baikonur Cosmodrome

Loading…

Następne Przeloty (najbliższe 24 godziny)

TLE

ŚwieżeSource: Space-Track

Epoka: Sep 14, 2026, 09:02 UTC

1 39074U 13005C   26257.37651053 -.00000114  00000-0 -57600-4 0  9994
2 39074  51.9938 239.2454 0000316 107.9842 252.1059 12.62264790629730

Śledź GLOBALSTAR M094 w czasie rzeczywistym z AllMySat

Download on the App Store